Terminal Aerodrome Forecast
Issued by NWS

Home | Current Version | Previous Version | Text Only | Print | Product List | Glossary On
Versions: 1 2 3 4 5 6 7 8 9 10 11 12 13 14 15 16 17 18
000
FTAK31 PAJN 012300
TAFAYA
TAF
PAYA 012323Z 0200/0224 13006KT P6SM -RA SCT015 BKN025 OVC060
     FM020400 10009G15KT 6SM -RA BR SCT010 BKN025 OVC035
     FM021600 08012G19KT 5SM -RA BR SCT010 BKN015 OVC025
      AMD LTD TO CLD VIS AND WIND 0201/0210=

USA.gov is the U.S. government's official web portal to all federal, state and local government web resources and services.